Burlington, WA
on Monday, November 26, 2012

Monday
Previous Day Next Day
Daily Summary
 ActualAverage (KBLI)Record (KBLI)
Temperature
Mean Temperature °F 41°F  
Max Temperature 44°F 47°F 66°F (1950)
Min Temperature 30°F 35°F 9°F (1985)
Degree Days
Heating Degree Days 28 24  
Month to date heating degree days 554  
Cooling Degree Days 0 0  
Month to date cooling degree days 0  
Year to date cooling degree days 42  
Moisture
Dew Point 34°F   
Average Humidity 92    
Maximum Humidity 100    
Minimum Humidity 71    
Precipitation
Precipitation 0.00 in 0.18 in 1.12 in (1963)
Month to date precipitation 5.06  
Year to date precipitation 30.87  
Wind
Wind Speed 5 mph   
Max Wind Speed 12 mph   
Max Gust Speed mph   
Visibility 10 miles   
Events     

Key: T is trace of precipitation, MM is missing value
Source: NWS Daily Summary
Time(PST)TemperatureDew PointHumidity Pressure Visibility Wind DirectionWind SpeedGust SpeedPrecipitationEvents Conditions
12:15 AM 33.8°F 33.8°F 100% 30.26 in 10.0 miles NW 5.8 mph - 0.00 in   Mostly Cloudy
12:35 AM 32.0°F 32.0°F 100% 30.27 in 9.0 miles Calm Calm - 0.00 in   Overcast
12:55 AM 32.0°F 32.0°F 100% 30.27 in 9.0 miles NNW 6.9 mph - 0.00 in   Overcast
1:15 AM 33.8°F 33.8°F 100% 30.26 in 10.0 miles North 3.5 mph - 0.00 in   Scattered Clouds
1:35 AM 35.6°F 35.6°F 100% 30.26 in 9.0 miles NNW 3.5 mph - 0.00 in   Clear
1:55 AM 33.8°F 33.8°F 100% 30.25 in 9.0 miles NW 4.6 mph - 0.00 in   Mostly Cloudy
2:15 AM 32.0°F 32.0°F 100% 30.24 in 6.0 miles NW 4.6 mph - 0.00 in   Overcast
2:35 AM 32.0°F 32.0°F 100% 30.24 in 5.0 miles WNW 4.6 mph - 0.00 in   Mostly Cloudy
2:55 AM 32.0°F 32.0°F 100% 30.23 in 4.0 miles NW 4.6 mph - 0.00 in   Clear
3:15 AM 32.0°F 32.0°F 100% 30.22 in 9.0 miles NNW 3.5 mph - 0.00 in   Mostly Cloudy
3:35 AM 32.0°F 32.0°F 100% 30.22 in 7.0 miles NNW 5.8 mph - 0.00 in   Overcast
3:55 AM 32.0°F 32.0°F 100% 30.21 in 8.0 miles NNW 8.1 mph - 0.00 in   Mostly Cloudy
4:15 AM 32.0°F 32.0°F 100% 30.21 in 10.0 miles NW 5.8 mph - 0.00 in   Scattered Clouds
4:35 AM 32.0°F 32.0°F 100% 30.21 in 7.0 miles NW 5.8 mph - 0.00 in   Overcast
4:55 AM 32.0°F 32.0°F 100% 30.21 in 10.0 miles NNW 4.6 mph - 0.00 in   Overcast
5:15 AM 32.0°F 32.0°F 100% 30.21 in 10.0 miles NNW 3.5 mph - 0.00 in   Scattered Clouds
5:35 AM 32.0°F 32.0°F 100% 30.20 in 10.0 miles Calm Calm - 0.00 in   Clear
5:55 AM 32.0°F 32.0°F 100% 30.20 in 8.0 miles NW 4.6 mph - 0.00 in   Scattered Clouds
6:15 AM 30.2°F 30.2°F 100% 30.20 in 8.0 miles NW 4.6 mph - 0.00 in   Overcast
6:35 AM 30.2°F 30.2°F 100% 30.20 in 10.0 miles NNW 3.5 mph - 0.00 in   Mostly Cloudy
6:55 AM 32.0°F 32.0°F 100% 30.19 in 9.0 miles NW 5.8 mph - 0.00 in   Partly Cloudy
7:15 AM 32.0°F 32.0°F 100% 30.19 in 9.0 miles NW 4.6 mph - 0.00 in   Clear
7:35 AM 33.8°F 33.8°F 100% 30.18 in 10.0 miles NNE 8.1 mph - 0.00 in   Partly Cloudy
7:55 AM 33.8°F 33.8°F 100% 30.17 in 10.0 miles NNE 5.8 mph - 0.00 in   Mostly Cloudy
8:15 AM 33.8°F 32.0°F 93% 30.17 in 10.0 miles NNE 10.4 mph - 0.00 in   Overcast
8:55 AM 35.6°F 33.8°F 93% 30.16 in 10.0 miles NE 5.8 mph - 0.00 in   Partly Cloudy
9:15 AM 35.6°F 33.8°F 93% 30.16 in 10.0 miles North 5.8 mph - 0.00 in   Mostly Cloudy
9:35 AM 37.4°F 32.0°F 81% 30.16 in 10.0 miles NNE 5.8 mph - 0.00 in   Overcast
9:55 AM 37.4°F 35.6°F 93% 30.16 in 10.0 miles NNW 5.8 mph - 0.00 in   Scattered Clouds
10:15 AM 37.4°F 37.4°F 100% 30.16 in 10.0 miles North 5.8 mph - 0.00 in   Clear
10:35 AM 39.2°F 37.4°F 93% 30.16 in 10.0 miles North 8.1 mph - 0.00 in   Clear
10:55 AM 39.2°F 37.4°F 93% 30.16 in 10.0 miles North 5.8 mph - 0.00 in   Clear
11:15 AM 39.2°F 37.4°F 93% 30.16 in 10.0 miles North 5.8 mph - 0.00 in   Clear
11:35 AM 41.0°F 37.4°F 87% 30.15 in 10.0 miles NW 6.9 mph - 0.00 in   Clear
11:55 AM 42.8°F 37.4°F 81% 30.14 in 10.0 miles NW 5.8 mph - 0.00 in   Clear
12:15 PM 42.8°F 37.4°F 81% 30.13 in 10.0 miles North 9.2 mph - 0.00 in   Clear
12:35 PM 42.8°F 37.4°F 81% 30.13 in 10.0 miles NW 5.8 mph - 0.00 in   Clear
1:35 PM 42.8°F 35.6°F 76% 30.11 in 10.0 miles NNW 8.1 mph - 0.00 in   Clear
1:55 PM 42.8°F 35.6°F 76% 30.10 in 10.0 miles NW 9.2 mph - 0.00 in   Clear
2:15 PM 44.6°F 35.6°F 71% 30.10 in 10.0 miles NW 9.2 mph - 0.00 in   Clear
2:35 PM 44.6°F 35.6°F 71% 30.10 in 10.0 miles NW 11.5 mph - 0.00 in   Clear
2:55 PM 44.6°F 37.4°F 76% 30.09 in 10.0 miles NW 8.1 mph - 0.00 in   Clear
3:15 PM 42.8°F 37.4°F 81% 30.09 in 9.0 miles NW 6.9 mph - 0.00 in   Clear
3:35 PM 42.8°F 35.6°F 76% 30.09 in 10.0 miles NW 6.9 mph - 0.00 in   Clear
3:55 PM 42.8°F 35.6°F 76% 30.09 in 10.0 miles NNW 6.9 mph - 0.00 in   Clear
4:15 PM 39.2°F 35.6°F 87% 30.09 in 10.0 miles NW 6.9 mph - 0.00 in   Clear
4:35 PM 39.2°F 35.6°F 87% 30.09 in 10.0 miles NW 5.8 mph - 0.00 in   Clear
4:55 PM 37.4°F 35.6°F 93% 30.09 in 10.0 miles NNW 6.9 mph - 0.00 in   Clear
5:15 PM 39.2°F 35.6°F 87% 30.08 in 10.0 miles NNW 5.8 mph - 0.00 in   Mostly Cloudy
5:35 PM 37.4°F 35.6°F 93% 30.09 in 10.0 miles NW 5.8 mph - 0.00 in   Overcast
6:15 PM 37.4°F 35.6°F 93% 30.08 in 10.0 miles NNW 5.8 mph - 0.00 in   Clear
6:35 PM 35.6°F 35.6°F 100% 30.08 in 10.0 miles NW 6.9 mph - 0.00 in   Clear
6:55 PM 37.4°F 35.6°F 93% 30.08 in 10.0 miles North 5.8 mph - 0.00 in   Clear
7:35 PM 39.2°F 33.8°F 81% 30.08 in 10.0 miles NE 9.2 mph - 0.00 in   Overcast
7:55 PM 39.2°F 33.8°F 81% 30.08 in 10.0 miles NNE 6.9 mph - 0.00 in   Overcast
8:15 PM 39.2°F 33.8°F 81% 30.08 in 10.0 miles NNE 8.1 mph - 0.00 in   Scattered Clouds
8:35 PM 39.2°F 33.8°F 81% 30.09 in 10.0 miles NE 9.2 mph - 0.00 in   Clear
8:55 PM 39.2°F 33.8°F 81% 30.09 in 10.0 miles NE 8.1 mph - 0.00 in   Clear
9:15 PM 37.4°F 35.6°F 93% 30.09 in 10.0 miles NNE 5.8 mph - 0.00 in   Clear
9:35 PM 37.4°F 33.8°F 87% 30.09 in 10.0 miles North 4.6 mph - 0.00 in   Clear
10:15 PM 33.8°F 33.8°F 100% 30.09 in 10.0 miles North 5.8 mph - 0.00 in   Partly Cloudy
10:35 PM 35.6°F 35.6°F 100% 30.09 in 10.0 miles North 3.5 mph - 0.00 in   Mostly Cloudy
10:55 PM 33.8°F 33.8°F 100% 30.10 in 10.0 miles NW 4.6 mph - 0.00 in   Scattered Clouds
11:15 PM 35.6°F 35.6°F 100% 30.10 in 10.0 miles NW 4.6 mph - 0.00 in   Clear
11:55 PM 37.4°F 33.8°F 87% 30.10 in 10.0 miles NNW 4.6 mph - 0.00 in   Mostly Cloudy
Moon Phase
Nov. 26 Nov. 28 Dec. 06 Dec. 13 Dec. 20
Sunrise:07:34 AM (PST) Moon Rise:03:19 PM (PST)11/26
Sunset:04:19 PM (PST) Moon Set:05:44 AM (PST)11/26

Copyright © 2014 The Weather Underground, Inc.